{"data":{"norad_id":53473,"intl_designator":"2022-099J","name":"STARLINK-4383","alt_names":[],"object_type":"PAYLOAD","status":"ACTIVE","operator":null,"country":"US","launch_date":"2022-08-12","launch_site_code":"AFWTR","launch_vehicle":null,"mission":null,"orbit_class":"UNKNOWN","rcs_meters":null,"size_class":null,"mass_kg":null,"dimensions":null,"purposes":["comms"],"wikipedia_slug":null,"has_3d_model":false,"image_url":null,"decayed_at":null,"tle_current":{"epoch":"2026-05-25T06:00:02.000160Z","epoch_age_seconds":56598,"freshness":"FRESH","line1":"1 53473U 22099J   26145.25002315  .00122588  00000+0  47993-2 0  9999","line2":"2 53473  97.5999 267.1947 0001656  71.3994 181.8882 15.25278686  5730","mean_motion":15.25278686,"eccentricity":0.0001656,"inclination_deg":97.5999,"raan_deg":267.1947,"arg_perigee_deg":71.3994,"mean_anomaly_deg":181.8882,"bstar":0.0047993,"rev_number":573,"period_min":94.408976747479,"perigee_km":488.81136573846,"apogee_km":491.08607572917,"semimajor_km":6868.0857207338,"source":"CELESTRAK","updated_at":"2026-05-25T13:38:17.429487Z"}}}